Wind_Speed
55 50 49 48 53 59 55 54 56 56 57 58 58 61 63 65 65 69 71 78 83 91 96 98 102 106 100 100 99 96 93 80 77 77 79 78 81 79 79 84 87 84 82
63 48 44 51 56 57 57 57 58 59 60 60 60 61 64 67 69 69 70 72 78 85 92 100 102 102 105 108 107 106 100 93 88 80 81 74 82 83 84 82 83 82 85
57 47 43 47 52 58 59 58 59 60 60 64 65 65 67 70 71 75 73 71 76 79 87 94 100 105 103 108 112 110 108 107 103 101 87 85 84 76 78 82 84 85 87
58 49 45 45 46 50 54 56 57 60 63 65 68 69 71 74 76 77 80 73 73 77 82 88 95 100 109 108 110 115 113 113 110 102 99 95 94 93 81 79 82 90 89
56 50 48 41 43 46 49 51 55 58 61 65 68 71 75 75 80 81 79 78 77 75 77 83 88 95 100 112 115 112 114 115 114 111 108 106 102 99 96 87 82 83 82
57 49 45 43 40 44 46 48 49 53 56 59 64 68 73 74 76 78 78 80 80 75 74 77 83 88 94 101 111 118 115 116 117 114 114 114 110 108 104 102 95 97 90
59 53 47 44 41 42 42 42 44 46 51 55 59 62 66 70 75 78 81 81 80 79 73 73 77 82 87 93 101 109 119 118 118 117 118 118 119 116 112 109 107 104 101
60 54 50 45 42 41 40 39 42 46 50 54 57 61 63 67 70 74 77 78 81 80 77 72 73 77 83 88 93 101 108 119 120 121 121 119 121 120 117 116 115 111 111
61 53 47 47 45 43 41 41 44 48 49 50 53 56 59 62 66 68 70 74 77 79 78 74 72 75 79 82 85 91 99 105 117 122 123 122 122 121 121 121 122 121 117
59 54 49 46 45 44 44 45 46 48 50 53 54 56 57 57 58 61 63 67 70 72 74 73 69 67 70 75 79 81 88 97 104 114 123 124 124 123 123 122 122 121 121
62 57 52 49 46 47 45 46 47 49 50 52 56 56 57 56 56 55 56 60 64 66 68 69 68 66 65 68 72 77 82 86 94 102 109 119 126 126 124 124 124 124 122
62 57 51 49 48 48 50 50 50 51 52 53 55 58 57 56 56 56 54 54 57 59 59 60 61 63 63 65 69 74 77 80 83 93 101 104 110 118 126 129 128 125 125
60 56 52 50 49 49 50 51 52 54 54 54 55 57 58 57 56 56 56 55 56 57 55 56 57 60 60 63 66 69 74 77 80 84 91 98 100 103 107 114 120 123 127
58 55 52 52 52 51 52 53 55 55 55 56 55 55 55 55 55 57 56 55 53 55 52 55 58 58 57 60 64 65 69 73 76 80 84 89 94 96 100 101 103 108 113
60 54 53 54 55 55 55 55 55 56 55 55 54 54 54 54 54 56 55 54 50 49 49 52 55 56 56 58 59 61 64 68 72 75 78 80 84 88 91 93 96 98 101
60 56 55 55 56 55 54 56 56 55 53 52 51 51 52 51 51 52 51 50 47 45 47 47 49 50 52 54 55 57 60 63 67 69 72 73 75 77 80 82 86 90 94
60 57 58 58 56 55 53 54 54 53 53 51 49 49 48 47 46 44 45 45 45 43 43 43 43 44 45 47 49 52 56 58 61 62 64 65 66 68 71 74 77 80 85
60 59 60 58 56 55 54 54 53 53 52 51 49 47 45 44 42 42 41 41 40 40 39 40 40 41 42 43 44 47 48 50 51 53 55 55 57 60 62 65 69 73 76
62 62 61 58 56 55 55 55 54 52 51 48 45 43 43 43 41 39 39 36 36 36 37 38 38 38 38 39 40 41 42 42 43 45 47 49 51 53 55 59 61 64 66
66 65 61 57 54 53 53 53 52 50 48 43 41 41 40 37 35 35 34 34 34 34 35 35 36 36 36 35 35 34 35 36 39 41 43 44 46 49 51 54 56 58 61
70 67 65 62 57 55 54 52 48 46 41 38 39 37 33 29 29 28 30 31 31 32 33 34 35 35 35 33 33 34 35 35 36 38 39 40 43 45 47 49 52 53 56
71 67 64 61 57 53 50 48 43 41 37 38 36 31 28 25 24 25 26 28 29 30 32 33 35 36 35 33 33 34 35 35 34 35 36 38 39 41 43 45 47 47 50
69 66 61 59 54 50 44 43 40 39 37 36 31 28 25 21 20 22 23 25 27 28 31 34 35 34 33 33 32 33 32 32 31 31 33 35 37 38 37 39 42 42 41
70 66 62 56 49 45 40 39 39 38 35 31 27 26 22 18 17 18 20 22 25 29 33 33 34 33 32 31 31 31 29 28 29 32 32 31 31 34 35 36 35 32 29
69 66 59 52 46 43 40 38 37 34 31 28 24 24 20 17 17 17 19 22 27 31 33 34 34 33 32 31 29 28 28 29 29 29 29 31 32 31 30 28 25 24 20
69 63 56 48 44 41 39 38 35 31 28 25 24 24 21 17 18 16 19 23 29 32 34 35 35 34 31 30 29 29 29 29 28 28 29 29 26 24 24 21 21 18 17
Wind_Direction
306 295 284 276 279 283 278 276 274 271 265 267 267 265 266 264 259 254 252 246 242 242 239 236 235 235 235 237 234 233 237 238 242 241 246 248 248 246 247 249 249 250 250
316 298 285 273 275 276 274 273 270 267 265 262 262 261 262 263 264 260 254 250 247 242 240 238 237 235 235 233 235 236 232 235 234 242 242 242 245 248 249 248 249 251 250
326 307 285 277 270 271 268 268 267 266 263 260 259 260 259 259 261 263 260 255 251 247 243 240 238 235 233 233 235 235 235 235 236 235 238 239 246 247 251 248 249 252 250
326 318 302 284 273 270 268 267 267 264 264 263 262 261 259 259 260 262 264 260 253 251 247 244 242 237 233 232 233 235 236 236 236 233 234 237 240 247 242 244 252 252 253
327 321 311 299 286 275 268 266 266 266 266 266 267 266 265 264 263 264 267 265 261 255 251 246 244 242 237 234 233 234 236 237 237 235 234 236 238 240 244 244 244 249 253
328 322 313 302 295 283 274 271 271 269 266 265 264 265 267 267 267 266 264 265 264 260 255 251 246 244 241 238 236 235 234 235 238 238 237 235 236 240 241 244 244 247 249
327 323 315 308 299 294 288 281 275 272 268 264 262 262 262 263 262 261 262 262 263 263 257 252 247 245 243 241 239 236 235 235 236 237 237 237 238 240 240 242 244 246 249
326 322 316 311 306 299 292 285 280 275 271 272 269 265 264 264 261 260 260 260 262 262 261 254 249 245 244 244 241 239 237 236 236 237 238 238 240 243 242 242 242 246 246
325 319 313 310 305 299 292 284 280 278 277 276 273 271 269 268 267 265 263 262 261 262 262 258 253 247 244 243 243 241 240 238 236 237 238 240 241 242 245 246 245 247 247
323 317 312 307 304 298 293 289 285 284 282 279 277 277 276 274 271 267 265 264 262 261 261 261 258 253 247 243 243 243 241 240 239 238 238 240 241 242 244 246 248 250 251
324 318 312 308 304 300 294 290 287 284 284 282 281 280 279 279 278 274 269 266 263 261 261 261 260 253 246 242 241 243 242 240 239 240 240 240 241 244 245 247 248 250 252
322 318 310 306 304 302 300 295 292 288 286 285 282 281 280 278 277 275 272 268 265 262 261 259 256 253 246 240 238 239 239 239 240 240 240 241 242 244 245 246 249 251 253
320 314 307 305 302 301 298 295 292 290 287 285 283 281 281 282 280 277 274 270 267 264 261 259 255 252 247 241 239 238 238 238 238 238 239 241 242 243 245 247 248 250 252
319 313 308 306 302 300 297 295 291 289 288 287 285 283 283 282 281 278 275 272 269 266 262 256 254 251 247 243 240 238 237 237 237 237 238 239 241 243 245 246 248 250 252
319 313 308 307 305 302 299 295 292 290 290 289 288 285 283 282 281 278 275 273 271 266 259 253 251 249 246 243 241 239 237 237 238 238 238 239 241 243 245 247 249 250 252
319 314 311 308 304 303 300 296 295 293 291 289 287 284 283 281 279 275 274 272 269 261 256 252 249 247 245 242 240 238 237 237 237 238 239 240 241 243 245 248 250 252 253
317 313 311 308 305 302 300 296 295 294 294 293 291 289 285 282 277 275 270 266 261 257 253 249 246 244 242 238 236 234 233 233 235 236 238 240 241 243 246 248 251 252 254
317 314 312 309 306 303 300 298 297 296 295 294 293 289 287 284 283 276 270 262 257 252 248 244 241 238 235 233 231 230 229 230 231 233 236 239 242 245 247 249 252 254 256
317 315 312 310 307 304 301 300 299 298 295 294 292 292 290 289 282 274 266 258 251 246 243 238 234 232 230 228 226 226 226 226 228 231 235 238 241 245 248 251 253 255 258
319 316 313 309 306 303 302 301 301 299 297 296 293 293 293 286 277 269 262 251 244 240 237 232 228 226 224 221 220 221 223 225 227 231 235 238 242 245 248 252 255 257 259
321 320 316 313 310 308 306 303 302 299 298 297 297 297 291 283 275 266 254 245 238 234 230 226 221 219 217 215 215 218 222 226 229 232 236 240 244 248 251 254 258 261 263
322 319 316 312 311 309 307 304 304 303 302 300 299 294 288 283 274 262 250 240 233 228 223 219 215 214 213 212 214 218 221 225 230 234 238 242 247 250 253 257 261 263 265
322 319 316 312 311 309 308 305 305 304 302 298 295 289 287 283 270 256 242 233 227 219 215 212 211 212 212 211 213 217 222 228 233 236 240 242 245 250 253 258 263 267 269
322 319 316 313 312 309 308 305 304 302 299 295 291 285 285 282 266 249 235 224 212 208 209 207 206 208 208 208 212 216 222 226 229 233 237 240 242 248 255 259 259 260 263
321 317 315 314 313 311 310 307 305 301 294 290 286 281 282 278 264 246 230 212 205 206 204 202 198 200 203 206 211 215 216 223 227 228 231 238 246 250 249 249 246 250 245
319 316 315 314 313 312 310 309 306 299 293 286 282 278 276 272 260 243 222 206 204 203 201 198 196 197 200 205 207 209 214 217 222 229 237 240 237 238 240 238 236 243 258
Height
10562 10549 10545 10540 10534 10529 10525 10523 10519 10518 10517 10517 10515 10514 10513 10514 10517 10518 10521 10526 10531 10536 10543 10550 10561 10571 10578 10584 10593 10598 10604 10605 10607 10610 10612 10619 10621 10627 10634 10638 10643 10647 10651
10545 10534 10526 10520 10515 10509 10505 10502 10499 10498 10499 10498 10497 10496 10495 10495 10495 10497 10500 10503 10508 10512 10517 10524 10533 10544 10553 10559 10566 10572 10583 10587 10589 10593 10598 10604 10604 10610 10616 10621 10624 10629 10632
10526 10515 10505 10499 10493 10487 10484 10482 10479 10479 10479 10478 10477 10477 10477 10475 10474 10474 10478 10483 10486 10490 10494 10497 10505 10518 10526 10535 10541 10548 10558 10566 10568 10577 10581 10589 10593 10596 10597 10603 10605 10610 10614
10508 10498 10489 10480 10473 10469 10466 10464 10462 10461 10459 10460 10458 10457 10456 10455 10454 10453 10453 10460 10465 10467 10470 10474 10480 10488 10500 10508 10516 10525 10533 10542 10547 10553 10562 10568 10576 10581 10584 10584 10588 10592 10594
10493 10482 10471 10464 10459 10454 10450 10447 10445 10444 10443 10443 10442 10441 10437 10436 10433 10434 10434 10434 10437 10443 10447 10451 10456 10463 10472 10481 10490 10498 10507 10517 10524 10532 10541 10549 10556 10562 10566 10568 10574 10575 10577
10477 10468 10459 10450 10444 10441 10436 10433 10431 10428 10424 10423 10421 10420 10418 10417 10415 10413 10412 10411 10411 10417 10423 10429 10432 10438 10446 10455 10463 10472 10482 10491 10501 10509 10518 10527 10535 10538 10546 10551 10557 10558 10562
10460 10451 10446 10439 10432 10428 10424 10419 10416 10412 10408 10404 10401 10399 10398 10396 10394 10391 10391 10390 10389 10390 10397 10403 10409 10414 10420 10429 10438 10445 10456 10467 10476 10483 10494 10502 10512 10518 10525 10531 10536 10541 10545
10447 10437 10428 10424 10418 10413 10408 10403 10399 10394 10391 10390 10387 10384 10381 10378 10375 10371 10369 10368 10367 10368 10372 10379 10384 10390 10396 10404 10412 10422 10429 10441 10452 10462 10468 10478 10487 10495 10503 10508 10516 10521 10527
10433 10423 10414 10406 10400 10396 10392 10387 10383 10379 10376 10372 10368 10364 10362 10358 10354 10351 10349 10347 10346 10346 10347 10353 10360 10365 10373 10380 10388 10399 10407 10416 10427 10437 10447 10457 10465 10473 10480 10486 10492 10499 10506
10420 10409 10401 10392 10386 10380 10375 10370 10365 10360 10356 10352 10348 10343 10339 10336 10333 10330 10328 10327 10326 10325 10326 10330 10337 10344 10351 10358 10366 10375 10383 10394 10404 10413 10423 10433 10441 10449 10457 10464 10469 10475 10482
10403 10392 10383 10376 10369 10363 10359 10354 10349 10344 10339 10334 10328 10325 10321 10317 10313 10310 10308 10307 10306 10306 10308 10310 10314 10320 10327 10335 10344 10351 10359 10370 10380 10390 10399 10409 10418 10427 10436 10443 10448 10453 10459
10389 10377 10369 10361 10353 10345 10339 10334 10329 10326 10321 10315 10310 10304 10301 10299 10295 10291 10289 10289 10288 10287 10289 10290 10294 10298 10305 10312 10321 10328 10336 10345 10357 10367 10376 10384 10394 10403 10412 10421 10426 10431 10436
10374 10363 10353 10345 10338 10331 10323 10316 10310 10305 10302 10298 10293 10287 10282 10279 10275 10271 10269 10269 10269 10268 10271 10272 10274 10279 10285 10292 10300 10307 10315 10324 10333 10344 10354 10362 10372 10380 10388 10396 10403 10409 10413
10357 10346 10336 10327 10320 10313 10306 10299 10292 10287 10283 10278 10273 10268 10263 10259 10255 10252 10251 10250 10251 10250 10253 10254 10255 10260 10267 10274 10279 10289 10297 10305 10314 10324 10332 10341 10349 10357 10364 10373 10379 10384 10390
10339 10330 10321 10310 10302 10293 10286 10279 10273 10268 10263 10259 10254 10250 10245 10241 10238 10234 10232 10231 10232 10233 10233 10236 10238 10243 10250 10256 10263 10272 10279 10287 10296 10306 10315 10324 10331 10338 10345 10352 10357 10363 10367
10323 10312 10303 10295 10286 10277 10268 10259 10252 10248 10245 10241 10238 10233 10228 10224 10221 10217 10215 10214 10215 10216 10217 10219 10223 10228 10234 10240 10247 10256 10264 10273 10281 10290 10299 10307 10315 10322 10328 10334 10339 10344 10349
10310 10298 10287 10277 10269 10260 10251 10242 10236 10231 10225 10221 10217 10214 10209 10205 10203 10201 10199 10198 10198 10201 10203 10205 10209 10215 10220 10226 10233 10241 10249 10258 10267 10276 10284 10291 10300 10307 10312 10318 10323 10327 10331
10295 10283 10271 10261 10251 10243 10232 10224 10220 10214 10208 10203 10198 10195 10191 10187 10185 10183 10182 10183 10185 10187 10190 10193 10198 10203 10209 10215 10222 10230 10238 10247 10255 10263 10271 10278 10286 10293 10299 10303 10308 10311 10313
10279 10267 10254 10243 10234 10225 10215 10206 10201 10198 10192 10187 10182 10177 10174 10171 10169 10167 10167 10170 10172 10175 10178 10183 10188 10194 10200 10207 10214 10221 10229 10238 10245 10252 10260 10267 10274 10280 10286 10289 10294 10297 10300
10263 10252 10239 10229 10220 10210 10200 10192 10185 10180 10175 10171 10166 10163 10159 10156 10154 10154 10155 10157 10160 10164 10169 10174 10180 10186 10192 10199 10206 10214 10221 10229 10237 10244 10250 10257 10263 10268 10272 10276 10280 10283 10286
10242 10229 10217 10208 10202 10193 10183 10175 10170 10165 10161 10156 10152 10149 10147 10145 10143 10143 10144 10147 10151 10156 10161 10167 10173 10179 10186 10193 10200 10207 10214 10221 10227 10234 10241 10247 10252 10257 10262 10265 10268 10270 10270
10224 10213 10204 10194 10187 10178 10169 10159 10154 10150 10148 10143 10140 10138 10137 10136 10134 10134 10136 10138 10142 10148 10154 10160 10166 10172 10179 10186 10193 10200 10207 10213 10220 10227 10233 10238 10243 10248 10251 10254 10255 10257 10256
10209 10200 10192 10182 10173 10164 10156 10146 10142 10139 10136 10132 10129 10128 10128 10127 10126 10127 10128 10131 10136 10142 10148 10153 10159 10166 10173 10180 10187 10193 10200 10207 10213 10219 10225 10230 10234 10238 10241 10242 10243 10244 10244
10194 10184 10176 10167 10159 10151 10145 10138 10132 10128 10125 10122 10121 10120 10120 10120 10119 10120 10121 10124 10130 10136 10141 10147 10153 10160 10167 10173 10180 10187 10194 10201 10207 10212 10217 10222 10226 10229 10231 10232 10233 10234 10234
10179 10169 10162 10154 10146 10138 10132 10127 10122 10118 10116 10113 10113 10112 10113 10113 10113 10114 10116 10120 10125 10130 10136 10141 10147 10154 10161 10168 10176 10183 10189 10195 10200 10206 10211 10215 10217 10219 10221 10222 10224 10226 10227
10166 10155 10148 10141 10134 10127 10121 10116 10112 10109 10107 10106 10105 10105 10106 10107 10108 10108 10111 10116 10120 10125 10130 10135 10142 10150 10158 10165 10171 10178 10184 10190 10195 10200 10204 10206 10209 10211 10213 10215 10218 10220 10221